TimeCEST,TemperatureF,Dew PointF,Humidity,Sea Level PressureIn,VisibilityMPH,Wind Direction,Wind SpeedMPH,Gust SpeedMPH,PrecipitationIn,Events,Conditions,WindDirDegrees,DateUTC
12:00 AM,60.8,51.8,72,29.95,-9999.0,SW,17.3,-,N/A,,Clear,230,2012-10-05 22:00:00
12:30 AM,59.0,51.8,77,29.98,-9999.0,SW,13.8,-,N/A,,Clear,230,2012-10-05 22:30:00
1:00 AM,60.8,51.8,72,29.98,-9999.0,WSW,15.0,-,N/A,,Clear,240,2012-10-05 23:00:00
1:30 AM,60.8,51.8,72,29.98,-9999.0,SW,16.1,-,N/A,,Clear,230,2012-10-05 23:30:00
2:00 AM,59,52,71,29.96,31,WSW,11.2,,,,Clear,250,2012-10-06 00:00:00
2:00 AM,59.0,51.8,77,29.98,-9999.0,WSW,15.0,-,N/A,,Clear,240,2012-10-06 00:00:00
2:30 AM,59.0,51.8,77,29.98,-9999.0,WSW,13.8,-,N/A,,Clear,240,2012-10-06 00:30:00
3:00 AM,59.0,51.8,77,29.98,-9999.0,WSW,12.7,-,N/A,,Clear,250,2012-10-06 01:00:00
3:30 AM,59.0,51.8,77,29.98,-9999.0,WSW,12.7,-,N/A,,Clear,240,2012-10-06 01:30:00
4:00 AM,59.0,51.8,77,29.98,-9999.0,WSW,12.7,-,N/A,,Clear,240,2012-10-06 02:00:00
4:30 AM,57.2,51.8,82,29.98,-9999.0,SW,10.4,-,N/A,,Clear,230,2012-10-06 02:30:00
5:00 AM,57.2,51.8,82,29.95,-9999.0,SW,11.5,-,N/A,,Clear,220,2012-10-06 03:00:00
5:30 AM,57.2,51.8,82,29.95,-9999.0,SW,10.4,-,N/A,,Clear,230,2012-10-06 03:30:00
6:00 AM,55.4,51.8,88,29.95,-9999.0,SW,12.7,-,N/A,,Clear,220,2012-10-06 04:00:00
6:30 AM,55.4,51.8,88,29.95,-9999.0,SSW,13.8,-,N/A,,Clear,210,2012-10-06 04:30:00
7:00 AM,55.4,50.0,82,29.95,-9999.0,South,6.9,-,N/A,,Clear,180,2012-10-06 05:00:00
7:30 AM,55.4,50.0,82,29.95,-9999.0,SSE,5.8,-,N/A,,Clear,160,2012-10-06 05:30:00
8:00 AM,57,51,74,29.95,25,SSW,11.2,,,,Scattered Clouds,210,2012-10-06 06:00:00
8:00 AM,57.2,51.8,82,29.95,6.2,South,5.8,-,N/A,,Partly Cloudy,180,2012-10-06 06:00:00
8:30 AM,57.2,51.8,82,29.95,-9999.0,SE,8.1,-,N/A,,Clear,130,2012-10-06 06:30:00
9:00 AM,59.0,53.6,82,29.95,-9999.0,SE,6.9,-,N/A,,Clear,140,2012-10-06 07:00:00
9:30 AM,62.6,53.6,72,29.95,-9999.0,South,6.9,-,N/A,,Clear,170,2012-10-06 07:30:00
10:00 AM,64.4,53.6,68,29.95,-9999.0,SSW,9.2,-,N/A,,Clear,200,2012-10-06 08:00:00
10:30 AM,64.4,53.6,68,29.95,-9999.0,SSW,12.7,-,N/A,,Clear,200,2012-10-06 08:30:00
11:00 AM,66.2,55.4,68,29.95,-9999.0,SSW,10.4,-,N/A,,Clear,200,2012-10-06 09:00:00
11:30 AM,68.0,53.6,60,29.92,-9999.0,SSW,15.0,-,N/A,,Clear,210,2012-10-06 09:30:00
11:37 AM,68.0,55.4,64,29.92,-9999.0,SW,17.3,29.9,N/A,,Clear,220,2012-10-06 09:37:00
12:00 PM,68.0,53.6,60,29.92,6.2,SW,19.6,-,N/A,,Partly Cloudy,220,2012-10-06 10:00:00
12:30 PM,68.0,55.4,64,29.92,-9999.0,SW,18.4,-,N/A,,Clear,230,2012-10-06 10:30:00
1:00 PM,68.0,53.6,60,29.89,6.2,SW,15.0,-,N/A,,Partly Cloudy,230,2012-10-06 11:00:00
1:30 PM,68.0,53.6,60,29.89,-9999.0,SW,13.8,-,N/A,,Clear,220,2012-10-06 11:30:00
2:00 PM,69,50,40,29.84,44,SW,20.1,,,,Scattered Clouds,220,2012-10-06 12:00:00
2:00 PM,68.0,51.8,56,29.86,-9999.0,SSW,23.0,-,N/A,,Clear,210,2012-10-06 12:00:00
2:30 PM,69.8,51.8,53,29.86,-9999.0,SW,20.7,-,N/A,,Clear,220,2012-10-06 12:30:00
3:00 PM,69.8,51.8,53,29.86,-9999.0,SSW,20.7,-,N/A,,Clear,210,2012-10-06 13:00:00
3:30 PM,69.8,51.8,53,29.86,-9999.0,SW,25.3,-,N/A,,Clear,220,2012-10-06 13:30:00
4:00 PM,69.8,51.8,53,29.86,-9999.0,SW,21.9,-,N/A,,Clear,220,2012-10-06 14:00:00
4:30 PM,69.8,51.8,53,29.83,-9999.0,SW,23.0,-,N/A,,Clear,220,2012-10-06 14:30:00
4:32 PM,68.0,53.6,60,29.83,-9999.0,SW,24.2,36.8,N/A,,Clear,220,2012-10-06 14:32:00
5:00 PM,69.8,51.8,53,29.83,-9999.0,SW,21.9,-,N/A,,Clear,220,2012-10-06 15:00:00
5:30 PM,68.0,51.8,56,29.83,-9999.0,SW,21.9,-,N/A,,Clear,220,2012-10-06 15:30:00
6:00 PM,68.0,51.8,56,29.86,-9999.0,SW,17.3,-,N/A,,Clear,230,2012-10-06 16:00:00
6:30 PM,68.0,46.4,46,29.86,-9999.0,WSW,23.0,35.7,N/A,,Clear,250,2012-10-06 16:30:00
7:00 PM,68.0,44.6,43,29.86,-9999.0,WSW,24.2,-,N/A,,Clear,250,2012-10-06 17:00:00
7:01 PM,68.0,44.6,43,29.86,-9999.0,WSW,23.0,34.5,N/A,,Clear,250,2012-10-06 17:01:00
7:30 PM,66.2,46.4,49,29.89,-9999.0,WSW,19.6,31.1,N/A,,Clear,250,2012-10-06 17:30:00
7:42 PM,66.2,46.4,49,29.89,6.2,WSW,19.6,31.1,N/A,Rain,Light Rain,250,2012-10-06 17:42:00
8:00 PM,65,47,41,29.86,25,WSW,17.9,,,Rain,Light Rain,250,2012-10-06 18:00:00
8:00 PM,64.4,46.4,52,29.89,-9999.0,WSW,23.0,-,N/A,,Clear,250,2012-10-06 18:00:00
8:30 PM,64.4,48.2,56,29.89,6.2,WSW,23.0,-,N/A,,Mostly Cloudy,250,2012-10-06 18:30:00
9:00 PM,62.6,48.2,59,29.89,6.2,WSW,18.4,29.9,N/A,,Mostly Cloudy,250,2012-10-06 19:00:00
9:30 PM,62.6,48.2,59,29.89,6.2,WSW,23.0,-,N/A,,Mostly Cloudy,250,2012-10-06 19:30:00
9:42 PM,62.6,50.0,63,29.92,6.2,NW,23.0,34.5,N/A,Rain,Light Rain,320,2012-10-06 19:42:00
9:51 PM,57.2,51.8,82,29.95,6.2,NW,13.8,-,N/A,Rain,Light Rain,310,2012-10-06 19:51:00
10:00 PM,57.2,51.8,82,29.95,5.6,NW,12.7,-,N/A,Rain,Light Rain,320,2012-10-06 20:00:00
10:30 PM,55.4,51.8,88,29.95,6.2,WNW,9.2,-,N/A,Rain,Light Rain,300,2012-10-06 20:30:00
11:00 PM,53.6,50.0,88,29.95,6.2,NNW,8.1,-,N/A,,Mostly Cloudy,330,2012-10-06 21:00:00
11:30 PM,53.6,50.0,88,29.95,6.2,North,5.8,-,N/A,Rain,Light Rain,350,2012-10-06 21:30:00